[[{"header":{"parameterUnit":"m.s-1","parameterCategory":1,"la1":30.2992,"la2":30.254,"lo1":-89.0895,"lo2":-89.0443,"dy":0.0025,"dx":0.0025,"nx":19,"ny":19,"refTime":"2026-04-02T09:00:00:Z","depth":0,"parameterNumber":2,"parameterNumberName":"U-component_of_WINDS"},"data":[0,0,0,-4.0399,-4.0401,-4.0502,-4.0502,-4.0638,-4.064,0,0,0,0,0,0,0,0,0,0,0,-4.0374,-4.0375,-4.0399,-4.0401,-4.0502,-4.0502,-4.0638,-4.064,0,0,0,0,0,0,0,0,0,0,0,-4.0373,-4.0374,-4.0376,-4.0402,-4.0502,-4.0502,-4.0638,-4.0559,0,0,0,0,0,0,0,0,0,0,-4.046,-4.0441,-4.0374,-4.0376,-4.0402,-4.0502,-4.0502,-4.0555,-4.0564,-4.0596,0,-4.0626,0,-4.0635,-4.0649,-4.065,0,0,0,-4.0398,-4.0434,-4.0457,-4.0376,-4.0403,-4.0502,-4.0455,-4.056,-4.057,-4.0608,-4.0628,-4.0633,-4.0637,-4.065,-4.0651,-4.0848,-4.0849,0,0,-4.0392,-4.0394,-4.045,-4.0464,-4.0449,-4.0452,-4.0459,-4.0566,-4.0588,-4.0628,-4.0636,-4.064,-4.0651,-4.0652,-4.0847,-4.0848,0,0,0,-4.0379,-4.039,-4.0411,-4.0458,-4.0476,-4.0455,-4.0463,-4.0583,-4.0589,-4.0637,-4.0641,-4.0652,-4.0654,-4.0846,-4.0848,-4.0903,0,0,0,-4.0375,-4.0382,-4.0408,-4.0411,-4.0474,-4.0531,-4.0477,-4.0582,-4.0594,-4.064,-4.0652,-4.0655,-4.0845,-4.0847,-4.0899,-4.0928,0,0,0,-4.0365,-4.0381,-4.0398,-4.041,-4.0454,-4.0529,-4.0542,-4.0584,-4.0597,-4.065,-4.0655,-4.0844,-4.0846,-4.0895,-4.0922,-4.098,0,0,0,-4.0356,-4.0445,-4.0398,-4.05,-4.0453,-4.0563,-4.0541,-4.0623,-4.0675,-4.0653,-4.0845,-4.0847,-4.0894,-4.0918,-4.0976,-4.1027,-4.105,0,0,-4.0469,-4.0459,-4.0518,-4.048,-4.0598,-4.0547,-4.0674,-4.072,-4.0723,-4.0806,-4.0811,-4.09,-4.0921,-4.0979,-4.1176,-4.1194,0,0,0,-4.0555,-4.0598,-4.0629,-4.0679,-4.0717,-4.0751,-4.0778,-4.0795,-4.0866,-4.0767,-4.0937,-4.095,-4.0984,-4.1008,-4.1023,-4.1051,-4.0859,-4.0859,-4.0859,-4.0717,-4.0717,-4.0816,-4.0829,-4.0878,-4.0905,-4.0945,-4.0972,-4.0958,-4.0998,-4.1022,-4.1142,-4.1171,-4.1182,-4.1212,-4.1051,-4.1051,-4.1051,-4.1052,-4.0882,-4.0942,-4.0922,-4.1011,-4.1011,-4.1085,-4.1115,-4.1103,-4.1171,-4.1124,-4.1153,-4.1099,-4.1201,-4.1227,-4.1056,-4.1055,-4.1054,-4.1054,-4.1054,-4.0987,-4.1015,-4.1036,-4.1109,-4.1166,-4.1176,-4.1243,-4.1241,-4.124,-4.1269,-4.1294,-4.1293,-4.129,-4.1282,-4.1282,-4.1282,-4.1283,-4.1283,-4.1283,-4.1086,-4.1108,-4.1165,-4.1214,-4.1246,-4.1288,-4.1318,-4.135,-4.1384,-4.1377,-4.1378,-4.1359,-4.1212,-4.1174,-4.129,-4.1289,-4.1288,-4.1287,-4.1287,-4.125,-4.1213,-4.1301,-4.1334,-4.1392,-4.1448,-4.1446,-4.1511,-4.1537,-4.157,-4.1546,-4.1439,-4.1427,-4.1415,-4.1384,-4.1546,-4.1546,-4.1546,-4.1546,-4.1337,-4.1332,-4.1422,-4.1474,-4.1525,-4.1532,-4.1632,-4.1657,-4.1676,-4.1693,-4.1669,-4.1628,-4.1616,-4.1612,-4.1596,-4.1566,-4.1772,-4.1772,-4.1772,-4.1438,-4.1438,-4.1522,-4.1542,-4.1587,-4.1626,-4.172,-4.1781,-4.1795,-4.1781,-4.1705,-4.1696,-4.1629,-4.1608,-4.1589,-4.1564,-4.151,0,0]},{"header":{"parameterUnit":"m.s-1","parameterCategory":1,"la1":30.2992,"la2":30.254,"lo1":-89.0895,"lo2":-89.0443,"dy":0.0025,"dx":0.0025,"nx":19,"ny":19,"refTime":"2026-04-02T09:00:00:Z","depth":0,"parameterNumber":3,"parameterNumberName":"V-component_of_WINDS"},"data":[0,0,0,3.358,3.3581,3.3604,3.3604,3.364,3.364,0,0,0,0,0,0,0,0,0,0,0,3.3577,3.3577,3.358,3.3581,3.3604,3.3604,3.364,3.364,0,0,0,0,0,0,0,0,0,0,0,3.3576,3.3577,3.3577,3.3581,3.3604,3.3604,3.364,3.362,0,0,0,0,0,0,0,0,0,0,3.3596,3.3596,3.3577,3.3577,3.3581,3.3604,3.3604,3.3619,3.3621,3.3632,0,3.3643,0,3.3642,3.3643,3.3643,0,0,0,3.3577,3.3595,3.3598,3.3577,3.3581,3.3604,3.3593,3.362,3.3623,3.3635,3.3643,3.3645,3.3643,3.3644,3.3644,3.372,3.372,0,0,3.3576,3.3582,3.3596,3.36,3.3597,3.3592,3.3593,3.3622,3.3631,3.3643,3.3645,3.3644,3.3644,3.3644,3.3719,3.372,0,0,0,3.3574,3.3582,3.3584,3.3599,3.3602,3.3593,3.3594,3.3629,3.363,3.3646,3.3644,3.3644,3.3645,3.3719,3.3719,3.3752,0,0,0,3.3574,3.3581,3.3584,3.3588,3.3602,3.3616,3.3602,3.3628,3.3631,3.3644,3.3644,3.3645,3.3718,3.3719,3.375,3.3766,0,0,0,3.3574,3.3581,3.3586,3.3588,3.3599,3.3616,3.3618,3.3628,3.363,3.3643,3.3645,3.3718,3.3719,3.3748,3.3763,3.379,0,0,0,3.3575,3.3612,3.3586,3.3627,3.3599,3.3636,3.3617,3.3644,3.3659,3.3644,3.3718,3.3719,3.3747,3.3761,3.3788,3.3814,3.3825,0,0,3.3625,3.3618,3.3641,3.3619,3.3663,3.3632,3.368,3.3687,3.3681,3.3707,3.3709,3.3751,3.3763,3.3789,3.3885,3.3894,0,0,0,3.3659,3.3676,3.3687,3.3703,3.371,3.3719,3.3718,3.3721,3.3743,3.3696,3.3767,3.3773,3.3789,3.3801,3.3809,3.3822,3.3725,3.3725,3.3725,3.3738,3.3731,3.377,3.3768,3.3783,3.3784,3.3797,3.3801,3.3787,3.3804,3.3812,3.3871,3.3885,3.3891,3.3905,3.3824,3.3824,3.3824,3.3825,3.3811,3.3835,3.3819,3.3852,3.3845,3.3872,3.3875,3.3865,3.3889,3.3863,3.3876,3.385,3.3901,3.3913,3.3827,3.3826,3.3826,3.3826,3.3826,3.3862,3.3873,3.3877,3.3902,3.3922,3.3918,3.3943,3.3935,3.3927,3.394,3.3949,3.3948,3.3948,3.3945,3.3945,3.3945,3.3945,3.3945,3.3946,3.3914,3.3918,3.3941,3.3955,3.3966,3.398,3.3983,3.3993,3.4002,3.3994,3.3994,3.3981,3.3907,3.389,3.3949,3.3948,3.3948,3.3947,3.3947,3.3992,3.3974,3.4009,3.4021,3.4038,3.406,3.405,3.4072,3.4079,3.4093,3.4077,3.4024,3.4015,3.4009,3.3995,3.4077,3.4077,3.4077,3.4077,3.4036,3.4032,3.4068,3.4087,3.4105,3.4101,3.4143,3.4146,3.4147,3.4151,3.4138,3.4118,3.4112,3.4107,3.4099,3.4085,3.4189,3.4189,3.4189,3.4084,3.4082,3.4119,3.4121,3.4135,3.4147,3.4187,3.421,3.4206,3.4194,3.4155,3.415,3.4118,3.4107,3.4094,3.4081,3.4056,0,0]}]]